Find Local Weather

World > North America > United States > Indiana

Michigan City, Indiana Regional Weather

Lat: 41.71N, Lon: 86.88W
Wx Zone: INZ003
Warning FLW WEATHER ALERT - (More Info. Click Here) Warning
Feedback
Expires:201809220400;;014449
ASUS43 KIND 220309
RWRIN 

WEATHER ROUNDUP FOR INDIANA
NATIONAL WEATHER SERVICE INDIANAPOLIS IN
1100 PM EDT FRI SEP 21 2018

NOTE: "FAIR" INDICATES FEW OR NO CLOUDS BELOW 12,000 FEET WITH NO
SIGNIFICANT WEATHER AND/OR OBSTRUCTIONS TO VISIBILITY.

* - STATION DOES NOT REPORT WEATHER SUCH AS PRECIPITATION OR FOG.

+ - STATION NOT QUALITY CONTROLLED BY THE NATIONAL WEATHER SERVICE.
    USE DATA WITH CAUTION...ESPECIALLY DEWPOINT AND RELATIVE
    HUMIDITY OBSERVATIONS.


INZ001>003-010>013-019-020-220400-
NORTHWEST INDIANA
  
CITY           SKY/WX    TMP DP  RH WIND       PRES   REMARKS
GARY /AIRPORT/ PTCLDY    63  48  59 N17G29    30.23R                  
KNOX *+        FAIR      59  48  67 N7        30.20R                  
LA PORTE +     FAIR      61  50  67 N12       30.21R                  
MICHIGAN CITY+ CLOUDY    61  46  59 N14G21    30.22R                  
MONTICELLO +   FAIR      63  50  63 N12G18    30.19R                  
RENSSELAER +   FAIR      63  45  51 N12       30.21R                  
VALPARAISO     FAIR      63  48  58 NW13G24   30.21R                  

$$


SKY/WX - Weather  TMP - Temperature  DP - Dew Point  RH - Relative Humidity
WIND - Wind Direction/Speed PRES - Barometric Pressure